Flag for Micronesia Weather past 2 weeks in Kolonia, Pohnpei, Micronesia

Now
83 °F

Mostly cloudy.


Feels Like: 94 °F
Forecast: 79 / 85 °F
Wind: 6 mph from Southwest

Location: Pohnpei

Current Time: Jul 5, 2015 at 11:17:51 AM

Latest Report: Jul 5, 2015 at 10:53 AM


Visibility: 15 mi

Pressure: 29.83 "Hg

Humidity: 88%

Dew point: 79 °F

Location of KoloniaLocation

Historic Weather in Kolonia — Graph

°F

Kolonia temperature yesterday

Maximum temperature yesterday: 84 °F (at 1:52 PM)
Minimum temperature yesterday: 73 °F (at 5:52 AM)
Average temperature yesterday: 79 °F

Past Weeks' High & Low Weather Summary

 TemperatureHumidityPressure
High89 °F (Jun 20, 11:50 AM)100% (Jun 21, 4:53 AM)29.90 "Hg (Jun 21, 4:53 AM)
Low73 °F (Jul 4, 5:52 AM)67% (Jun 20, 12:51 PM)29.71 "Hg (Jul 1, 3:50 PM)
Average80 °F88%29.81 "Hg
* Reported Jun 20 9:50 AM — Jul 5 9:51 AM, Kolonia, Weather by CustomWeather, © 2015

Note: Actual official high and low records may vary slightly from our data, if they occured in-between our weather recording intervals... More about our weather records

Advertising

Kolonia weather history for previous 24 hours

 ConditionsComfort  
Time TempWeatherWind HumidityBarometerVisibility
9:51 AM
Sun, Jul 5
83 °FMostly cloudy.3 mph88%29.82 "Hg15 mi
8:52 AM82 °FCloudy.3 mph87%29.84 "Hg15 mi
7:53 AM80 °FCloudy.3 mph92%29.83 "Hg15 mi
6:50 AM78 °FMostly cloudy.5 mph95%29.80 "Hg15 mi
5:54 AM77 °FLight rain. Overcast.3 mph96%29.80 "Hg15 mi
4:52 AM76 °FOvercast.No wind99%29.80 "Hg15 mi
3:52 AM76 °FMostly cloudy.No wind96%29.80 "Hg15 mi
2:53 AM76 °FMostly cloudy.3 mph96%29.78 "Hg15 mi
1:52 AM76 °FMostly cloudy.3 mph96%29.80 "Hg15 mi
12:50 AM76 °FMostly cloudy.3 mph97%29.82 "Hg15 mi
10:55 PM
Sat, Jul 4
78 °FMostly cloudy.3 mph90%29.84 "Hg15 mi
9:50 PM79 °FMostly cloudy.3 mph91%29.83 "Hg15 mi
8:50 PM79 °FMostly cloudy.6 mph93%29.83 "Hg15 mi
7:50 PM79 °FMostly cloudy.3 mph88%29.80 "Hg15 mi
5:50 PM81 °FMostly cloudy.7 mph80%29.75 "Hg15 mi
4:50 PM82 °FMostly cloudy.5 mph74%29.75 "Hg15 mi
3:50 PM82 °FMostly cloudy.10 mph82%29.75 "Hg15 mi
2:52 PM83 °FMostly cloudy.12 mph82%29.75 "Hg15 mi
1:52 PM84 °FMostly cloudy.7 mph79%29.76 "Hg15 mi
12:51 PM83 °FMostly cloudy.7 mph79%29.78 "Hg15 mi
11:50 AM83 °FMostly cloudy.6 mph79%29.78 "Hg15 mi
Weather by CustomWeather, © 2015

See weather overviewHow to use our weather pages